This demonstration page uses our WeatherBlox Daily Observations layout. Learn more.

Left ArrowRight Arrow

34.74481, -87.66753

Hourly Observations for February 16, 2020

Temp ( °F °C ) Dew Point ( °F °C ) Humidity (%) Winds ( mph kmh ) Pressure ( in mb ) Visibility ( mi km ) Precip ( " mm )
12:53 am 00:53 Cloudy 47 8.3 33 0.6 59 59 E 6 9 30.19 1022 10 16 0.00 0.00
1:53 am 01:53 Cloudy 47 8.3 33 0.6 59 59 E 3 6 30.18 1022 10 16 0.00 0.00
2:53 am 02:53 Cloudy 47 8.3 33 0.6 59 59 E 5 7 30.15 1021 10 16 0.00 0.00
3:53 am 03:53 Cloudy 48 8.9 32 0 54 54 E 5 7 30.14 1021 10 16 0.00 0.00
4:53 am 04:53 Cloudy 47 8.3 33 0.6 59 59 ESE 5 7 30.16 1021 10 16 0.00 0.00
5:53 am 05:53 Cloudy 49 9.4 32 0 52 52 SE 6 9 30.16 1021 10 16 0.00 0.00
6:53 am 06:53 Cloudy 48 8.9 35 1.7 61 61 E 3 6 30.15 1021 10 16 0.00 0.00
7:53 am 07:53 Cloudy 52 11.1 32 0 47 47 S 5 7 30.16 1022 10 16 0.00 0.00
8:53 am 08:53 Cloudy 53 11.7 34 1.1 48 48 S 6 9 30.15 1021 10 16 0.00 0.00
9:53 am 09:53 Cloudy 54 12.2 34 1.1 47 47 S 7 11 30.15 1021 10 16 0.00 0.00
10:53 am 10:53 Cloudy 57 13.9 35 1.7 44 44 SW 7 11 30.14 1021 10 16 0.00 0.00
11:53 am 11:53 Cloudy 57 13.9 35 1.7 44 44 S 7 11 30.11 1020 10 16 0.00 0.00
12:53 pm 12:53 Cloudy 59 15 37 2.8 44 44 S 7 11 30.08 1019 10 16 0.00 0.00
1:53 pm 13:53 Cloudy 60 15.6 38 3.3 44 44 S 5 7 30.06 1018 10 16 0.00 0.00
2:53 pm 14:53 Cloudy 60 15.6 38 3.3 44 44 S 5 7 30.07 1018 10 16 0.00 0.00
3:53 pm 15:53 Cloudy 59 15 43 6.1 56 56 NW 7 11 30.06 1018 10 16 0.00 0.00
4:53 pm 16:53 Cloudy 57 13.9 46 7.8 67 67 Calm 30.04 1017 10 16 0.00 0.00
5:53 pm 17:53 Cloudy 56 13.3 45 7.2 67 67 Calm 30.06 1018 10 16 0.00 0.00
6:53 pm 18:53 Mostly Cloudy 53 11.7 44 6.7 72 72 Calm 30.06 1018 10 16 0.00 0.00
7:53 pm 19:53 Clear 50 10 44 6.7 80 80 Calm 30.06 1018 10 16 0.00 0.00
8:53 pm 20:53 Clear 48 8.9 44 6.7 86 86 Calm 30.07 1018 10 16 0.00 0.00
9:53 pm 21:53 Clear 44 6.7 41 5 89 89 SE 3 6 30.06 1018 10 16 0.00 0.00
10:53 pm 22:53 Clear 45 7.2 42 5.6 90 90 Calm 30.07 1018 10 16 0.00 0.00
11:53 pm 23:53 Clear 45 7.2 42 5.6 90 90 Calm 30.08 1019 10 16 0.00 0.00

Powered by AerisWeather